SCP
0 0 0 0 0 0 0 0 0 0 0 0 0 0 0 0 0 0 0 0 0 0
0 0 0 0 0 0 0 0 0 0 0 0 0 0 0 0 0 0 0 0 0 0
0 0 0 0 0 0 0 0 0 0 0 0 0 0 0 0 0 0 0 0 0 0
0 0 0 0 0 0 0 0 0 0 0 0 0 0 0 0 0 0 0 0 0 0
0 0 0 0 0 0 0 0 0 0 0 0 0 0 0 0 0 0 0 0 0 0
0 0 0 0 0 0 0 0 0 0 0 0 0 0 0 0 0 0 0 0 0 0
0 0 0 0 0 0 0 0 0 0 0 0 0 0 0 0 0 0 0 0 0 0
0 0 0 0 0 0 0 0 0 0 0 0 0 0 0 0 0 0 0 0 0 0
0 0 0 0 0 0 0 0 0 0 0 0 0 0 0 0 0 0 0 0 0 0
0 0 0 0 0 0 0 0 0 0 0 0 0 0 0 0 0 0 0 0 0 0
0 0 0 0 0 0 0 0 0 0 0 0 0 0 0 0 0 0 0 0 0 0
0 0 0 0 0 0 0 0 0 0 0 0 0 0 0 0 0 0 0 0 0 0
0 0 0 0 0 0 0 0 0 0 0 0 0 0 0 0 0 0 0 0 0 0
0 0 0 0 0 0 0 0 0 0 0 0 0 0 0 0 0 0 0 0 0 0
Wind_Speed_500mb
73 73 68 64 62 61 59 56 55 52 49 46 42 39 36 33 31 29 26 22 20 18
79 78 72 65 61 60 59 56 52 49 46 43 40 38 36 34 32 30 27 24 21 19
84 81 72 68 66 63 59 55 53 49 46 44 42 40 38 36 34 30 27 24 21 19
87 83 74 69 65 62 59 56 53 51 50 48 46 43 40 37 34 30 27 24 22 21
87 83 77 72 66 62 59 57 54 52 51 49 46 44 41 37 34 30 28 25 23 23
88 86 81 74 67 63 60 57 54 52 52 50 47 44 41 37 33 31 29 26 25 25
88 88 84 75 69 65 61 57 54 51 50 48 45 42 40 37 34 31 28 26 27 27
86 87 83 76 71 66 62 57 52 52 51 48 45 42 40 37 34 31 29 29 29 29
83 83 81 78 74 69 63 58 56 54 51 49 45 43 40 37 35 33 33 32 32 31
79 80 79 77 75 71 65 61 58 54 51 47 45 42 40 38 37 34 32 29 30 29
75 76 76 75 74 69 65 62 59 56 51 47 45 44 45 40 34 31 28 27 27 26
70 74 74 75 73 69 66 63 60 55 52 50 47 44 40 33 30 27 25 23 22 22
66 71 72 70 68 66 64 62 59 56 50 47 41 33 31 28 26 23 20 18 18 21
64 66 67 67 64 63 61 60 60 58 53 44 33 21 22 23 19 17 15 17 22 27
Wind_Direction_500mb
215 216 215 212 208 207 205 201 199 198 199 200 200 200 199 197 200 203 205 207 210 215
214 216 214 211 210 208 205 203 203 202 202 201 200 200 201 202 205 207 210 212 215 219
215 216 214 213 211 208 206 205 205 205 204 204 203 203 204 206 208 210 213 216 220 226
215 216 215 216 214 211 208 207 207 207 206 206 206 205 207 208 212 214 217 220 226 233
217 217 216 216 214 211 209 208 208 206 206 207 207 208 210 213 214 217 220 225 231 239
218 217 217 216 213 211 210 209 205 206 208 208 209 210 210 214 217 220 225 231 238 248
220 218 218 216 213 213 212 211 209 208 208 209 210 211 213 216 220 223 228 237 245 253
221 218 217 215 213 213 212 211 211 208 206 207 209 213 215 217 221 227 233 240 248 257
220 219 217 214 213 212 210 209 209 208 209 208 209 211 214 219 224 230 237 245 256 262
220 217 215 213 211 210 209 209 208 206 206 207 209 211 215 220 226 233 242 248 253 260
219 216 212 209 208 207 207 207 205 203 203 203 203 209 218 225 228 234 237 243 250 260
216 212 207 205 204 204 202 199 198 197 196 199 202 213 220 221 222 226 230 239 252 267
212 210 205 203 199 196 197 193 189 187 190 194 199 209 215 207 210 216 227 241 258 279
206 206 205 199 196 194 189 186 181 181 180 184 186 177 187 187 197 213 232 257 280 297
Wind_Speed_850mb
73 73 68 64 62 61 59 56 55 52 49 46 42 39 36 33 31 29 26 22 20 18
79 78 72 65 61 60 59 56 52 49 46 43 40 38 36 34 32 30 27 24 21 19
84 81 72 68 66 63 59 55 53 49 46 44 42 40 38 36 34 30 27 24 21 19
87 83 74 69 65 62 59 56 53 51 50 48 46 43 40 37 34 30 27 24 22 21
87 83 77 72 66 62 59 57 54 52 51 49 46 44 41 37 34 30 28 25 23 23
88 86 81 74 67 63 60 57 54 52 52 50 47 44 41 37 33 31 29 26 25 25
88 88 84 75 69 65 61 57 54 51 50 48 45 42 40 37 34 31 28 26 27 27
86 87 83 76 71 66 62 57 52 52 51 48 45 42 40 37 34 31 29 29 29 29
83 83 81 78 74 69 63 58 56 54 51 49 45 43 40 37 35 33 33 32 32 31
79 80 79 77 75 71 65 61 58 54 51 47 45 42 40 38 37 34 32 29 30 29
75 76 76 75 74 69 65 62 59 56 51 47 45 44 45 40 34 31 28 27 27 26
70 74 74 75 73 69 66 63 60 55 52 50 47 44 40 33 30 27 25 23 22 22
66 71 72 70 68 66 64 62 59 56 50 47 41 33 31 28 26 23 20 18 18 21
64 66 67 67 64 63 61 60 60 58 53 44 33 21 22 23 19 17 15 17 22 27
Wind_Direction_850mb
215 216 215 212 208 207 205 201 199 198 199 200 200 200 199 197 200 203 205 207 210 215
214 216 214 211 210 208 205 203 203 202 202 201 200 200 201 202 205 207 210 212 215 219
215 216 214 213 211 208 206 205 205 205 204 204 203 203 204 206 208 210 213 216 220 226
215 216 215 216 214 211 208 207 207 207 206 206 206 205 207 208 212 214 217 220 226 233
217 217 216 216 214 211 209 208 208 206 206 207 207 208 210 213 214 217 220 225 231 239
218 217 217 216 213 211 210 209 205 206 208 208 209 210 210 214 217 220 225 231 238 248
220 218 218 216 213 213 212 211 209 208 208 209 210 211 213 216 220 223 228 237 245 253
221 218 217 215 213 213 212 211 211 208 206 207 209 213 215 217 221 227 233 240 248 257
220 219 217 214 213 212 210 209 209 208 209 208 209 211 214 219 224 230 237 245 256 262
220 217 215 213 211 210 209 209 208 206 206 207 209 211 215 220 226 233 242 248 253 260
219 216 212 209 208 207 207 207 205 203 203 203 203 209 218 225 228 234 237 243 250 260
216 212 207 205 204 204 202 199 198 197 196 199 202 213 220 221 222 226 230 239 252 267
212 210 205 203 199 196 197 193 189 187 190 194 199 209 215 207 210 216 227 241 258 279
206 206 205 199 196 194 189 186 181 181 180 184 186 177 187 187 197 213 232 257 280 297